�������l�o���
Date,Time,MP-1(��Sv/h),MP-2(��Sv/h),MP-3(��Sv/h),MP-4(��Sv/h),MP-5(��Sv/h),MP-6(��Sv/h),MP-7(��Sv/h),MP-8(��Sv/h),����,����(m/s),���J
2023/04/11,00:00,0.566,0.821,0.496,1.023,0.726,0.323,0.576,0.547,�쐼,0.6,��
2023/04/11,00:10,0.566,0.822,0.497,1.022,0.724,0.325,0.576,0.547,��쐼,0.9,��
2023/04/11,00:20,0.566,0.820,0.496,1.024,0.723,0.324,0.575,0.546,�쐼,1.2,��
2023/04/11,00:30,0.567,0.821,0.495,1.024,0.724,0.322,0.575,0.546,�쐼,1.8,��
2023/04/11,00:40,0.567,0.820,0.496,1.020,0.724,0.323,0.576,0.545,��쐼,1.2,��
2023/04/11,00:50,0.566,0.820,0.495,1.023,0.724,0.322,0.576,0.546,��쐼,1.2,��
2023/04/11,01:00,0.566,0.821,0.494,1.021,0.722,0.324,0.575,0.544,�쐼,2.0,��
2023/04/11,01:10,0.567,0.821,0.495,1.022,0.724,0.324,0.576,0.546,�쐼,2.0,��
2023/04/11,01:20,0.567,0.820,0.495,1.026,0.723,0.324,0.575,0.546,�쐼,2.0,��
2023/04/11,01:30,0.567,0.822,0.497,1.023,0.723,0.322,0.576,0.546,�쐼,1.7,��
2023/04/11,01:40,0.567,0.820,0.496,1.022,0.723,0.323,0.577,0.544,���쐼,1.5,��
2023/04/11,01:50,0.565,0.823,0.496,1.022,0.724,0.323,0.575,0.544,��,1.5,��
2023/04/11,02:00,0.567,0.821,0.495,1.025,0.724,0.322,0.574,0.545,���쐼,1.8,��
2023/04/11,02:10,0.566,0.819,0.497,1.023,0.723,0.323,0.576,0.545,���쐼,2.3,��
2023/04/11,02:20,0.567,0.821,0.497,1.022,0.723,0.324,0.576,0.546,�쐼,3.0,��
2023/04/11,02:30,0.567,0.823,0.495,1.024,0.723,0.323,0.574,0.545,�쐼,2.8,��
2023/04/11,02:40,0.566,0.820,0.495,1.022,0.724,0.322,0.576,0.547,���쐼,1.2,��
2023/04/11,02:50,0.567,0.820,0.495,1.024,0.723,0.323,0.575,0.544,���k��,0.6,��
2023/04/11,03:00,0.565,0.819,0.495,1.022,0.722,0.323,0.574,0.546,���쐼,0.8,��
2023/04/11,03:10,0.568,0.822,0.495,1.022,0.722,0.323,0.575,0.546,��,1.7,��
2023/04/11,03:20,0.565,0.819,0.495,1.025,0.723,0.323,0.576,0.544,��,2.0,��
2023/04/11,03:30,0.568,0.820,0.496,1.023,0.723,0.323,0.575,0.544,��,2.0,��
2023/04/11,03:40,0.564,0.820,0.495,1.021,0.722,0.322,0.574,0.546,�쐼,2.0,��
2023/04/11,03:50,0.565,0.818,0.494,1.023,0.720,0.323,0.574,0.545,�쐼,2.0,��
2023/04/11,04:00,0.566,0.821,0.496,1.023,0.725,0.323,0.575,0.545,��쐼,2.0,��
2023/04/11,04:10,0.565,0.820,0.493,1.022,0.723,0.324,0.577,0.545,��,1.8,��
2023/04/11,04:20,0.566,0.818,0.494,1.023,0.723,0.322,0.574,0.546,��,2.5,��
2023/04/11,04:30,0.566,0.819,0.494,1.023,0.723,0.324,0.573,0.545,��쐼,2.9,��
2023/04/11,04:40,0.567,0.819,0.493,1.023,0.724,0.322,0.575,0.544,��,2.0,��
2023/04/11,04:50,0.565,0.818,0.496,1.024,0.723,0.322,0.575,0.545,��,1.9,��
2023/04/11,05:00,0.566,0.820,0.495,1.020,0.723,0.322,0.575,0.545,��,2.3,��
2023/04/11,05:10,0.566,0.819,0.494,1.023,0.723,0.323,0.576,0.545,��쐼,2.6,��
2023/04/11,05:20,0.567,0.819,0.496,1.023,0.722,0.323,0.577,0.546,��쐼,1.5,��
2023/04/11,05:30,0.565,0.820,0.496,1.023,0.723,0.322,0.575,0.544,��쓌,1.2,��
2023/04/11,05:40,0.566,0.821,0.495,1.024,0.722,0.321,0.576,0.544,��쓌,1.2,��
2023/04/11,05:50,0.565,0.821,0.495,1.025,0.724,0.321,0.575,0.545,��쐼,1.2,��
2023/04/11,06:00,0.566,0.820,0.494,1.024,0.721,0.322,0.576,0.546,�쐼,1.5,��
2023/04/11,06:10,0.567,0.820,0.495,1.024,0.725,0.323,0.574,0.545,�쐼,2.2,��
2023/04/11,06:20,0.566,0.819,0.496,1.024,0.723,0.323,0.576,0.547,��,1.5,��
2023/04/11,06:30,0.566,0.819,0.496,1.022,0.724,0.322,0.575,0.545,��쐼,2.0,��
2023/04/11,06:40,0.566,0.821,0.495,1.025,0.722,0.324,0.576,0.545,��쐼,2.5,��
2023/04/11,06:50,0.567,0.820,0.496,1.025,0.722,0.324,0.576,0.546,��,2.9,��
2023/04/11,07:00,0.567,0.821,0.495,1.022,0.722,0.324,0.577,0.547,��,3.0,��
2023/04/11,07:10,0.566,0.821,0.495,1.022,0.722,0.324,0.577,0.545,��,2.9,��
2023/04/11,07:20,0.567,0.821,0.497,1.022,0.725,0.322,0.578,0.546,��,2.6,��
2023/04/11,07:30,0.568,0.821,0.497,1.023,0.724,0.322,0.577,0.547,��,3.1,��
2023/04/11,07:40,0.569,0.821,0.496,1.025,0.725,0.322,0.576,0.545,��,2.6,��
2023/04/11,07:50,0.567,0.821,0.498,1.023,0.722,0.321,0.577,0.547,��쓌,3.5,��
2023/04/11,08:00,0.568,0.818,0.495,1.024,0.725,0.321,0.577,0.547,��쓌,2.9,��
2023/04/11,08:10,0.567,0.822,0.498,1.025,0.725,0.322,0.576,0.547,��쓌,3.4,��
2023/04/11,08:20,0.569,0.818,0.495,1.025,0.723,0.322,0.578,0.546,��,4.8,��
2023/04/11,08:30,0.568,0.818,0.496,1.024,0.724,0.322,0.575,0.547,��,5.1,��
2023/04/11,08:40,0.568,0.819,0.498,1.025,0.725,0.324,0.575,0.545,��쓌,4.7,��
2023/04/11,08:50,0.566,0.819,0.495,1.025,0.724,0.322,0.574,0.544,��쓌,4.4,��
2023/04/11,09:00,0.566,0.821,0.496,1.026,0.727,0.323,0.575,0.544,��쓌,4.4,��
2023/04/11,09:10,0.566,0.821,0.494,1.025,0.725,0.322,0.576,0.544,��쓌,5.4,��
2023/04/11,09:20,0.566,0.819,0.495,1.028,0.724,0.322,0.575,0.544,��쓌,5.5,��
2023/04/11,09:30,0.566,0.820,0.497,1.026,0.722,0.322,0.576,0.545,��쓌,7.0,��
2023/04/11,09:40,0.567,0.822,0.496,1.026,0.724,0.323,0.575,0.544,��쓌,6.4,��
2023/04/11,09:50,0.566,0.821,0.496,1.027,0.726,0.323,0.577,0.544,��쓌,4.3,��
2023/04/11,10:00,0.567,0.819,0.498,1.027,0.724,0.324,0.575,0.544,��쓌,4.0,��
2023/04/11,10:10,0.566,0.822,0.498,1.028,0.725,0.323,0.577,0.547,��쓌,6.3,��
2023/04/11,10:20,0.565,0.821,0.495,1.025,0.724,0.323,0.578,0.544,��쓌,6.5,��
2023/04/11,10:30,0.568,0.820,0.495,1.027,0.723,0.323,0.577,0.544,��쓌,6.8,��
2023/04/11,10:40,0.564,0.821,0.496,1.026,0.724,0.323,0.576,0.545,��쓌,7.0,��
2023/04/11,10:50,0.563,0.821,0.496,1.029,0.723,0.322,0.577,0.545,��쓌,7.1,��
2023/04/11,11:00,0.563,0.820,0.496,1.026,0.726,0.321,0.577,0.545,��쓌,8.3,��
2023/04/11,11:10,0.561,0.822,0.496,1.026,0.726,0.324,0.576,0.544,��쓌,9.1,��
2023/04/11,11:20,0.565,0.821,0.494,1.028,0.724,0.323,0.578,0.546,��쓌,7.6,��
2023/04/11,11:30,0.569,0.821,0.497,1.026,0.725,0.324,0.578,0.544,��,6.1,��
2023/04/11,11:40,0.567,0.824,0.495,1.027,0.727,0.322,0.577,0.547,��쓌,7.2,��
2023/04/11,11:50,0.569,0.821,0.497,1.029,0.727,0.324,0.577,0.545,��쓌,9.4,��
2023/04/11,12:00,0.569,0.820,0.497,1.027,0.726,0.324,0.577,0.546,��쓌,10.5,��
2023/04/11,12:10,0.568,0.822,0.497,1.028,0.726,0.323,0.578,0.545,��쓌,9.8,��
2023/04/11,12:20,0.569,0.823,0.496,1.029,0.727,0.322,0.579,0.545,��,8.8,��
2023/04/11,12:30,0.570,0.825,0.498,1.028,0.726,0.324,0.579,0.544,��쓌,11.3,��
2023/04/11,12:40,0.569,0.823,0.498,1.028,0.727,0.325,0.578,0.545,��쓌,10.0,��
2023/04/11,12:50,0.569,0.824,0.498,1.028,0.727,0.324,0.579,0.545,��쓌,11.0,��
2023/04/11,13:00,0.572,0.825,0.496,1.029,0.728,0.324,0.578,0.545,��쓌,11.6,��
2023/04/11,13:10,0.569,0.824,0.497,1.029,0.727,0.323,0.578,0.546,��쓌,13.3,��
2023/04/11,13:20,0.569,0.823,0.498,1.028,0.728,0.324,0.578,0.546,��쓌,14.7,��
2023/04/11,13:30,0.569,0.824,0.496,1.028,0.730,0.324,0.578,0.546,��쓌,13.6,��
2023/04/11,13:40,0.570,0.822,0.497,1.028,0.728,0.322,0.576,0.547,��,12.0,��
2023/04/11,13:50,0.569,0.825,0.495,1.029,0.728,0.323,0.578,0.546,��쓌,10.9,��
2023/04/11,14:00,0.571,0.824,0.495,1.031,0.730,0.324,0.579,0.546,��쓌,14.6,��
2023/04/11,14:10,0.570,0.825,0.496,1.028,0.728,0.325,0.576,0.546,��,12.5,��
2023/04/11,14:20,0.571,0.823,0.498,1.030,0.729,0.324,0.578,0.546,��,10.8,��
2023/04/11,14:30,0.570,0.825,0.496,1.032,0.731,0.323,0.580,0.547,��,9.4,��
2023/04/11,14:40,0.571,0.826,0.496,1.030,0.727,0.325,0.578,0.546,��,11.6,��
2023/04/11,14:50,0.571,0.822,0.498,1.032,0.728,0.325,0.578,0.546,��,12.4,��
2023/04/11,15:00,0.570,0.824,0.497,1.030,0.729,0.324,0.578,0.547,��,10.2,��
2023/04/11,15:10,0.572,0.823,0.496,1.030,0.730,0.324,0.579,0.546,��,10.2,��
2023/04/11,15:20,0.571,0.827,0.497,1.027,0.730,0.324,0.578,0.546,��,11.0,��
2023/04/11,15:30,0.571,0.827,0.495,1.028,0.729,0.324,0.579,0.548,��,12.7,��
2023/04/11,15:40,0.569,0.824,0.498,1.028,0.727,0.323,0.578,0.545,��쓌,11.1,��
2023/04/11,15:50,0.570,0.825,0.497,1.027,0.729,0.323,0.577,0.546,��,13.3,��
2023/04/11,16:00,0.570,0.823,0.498,1.027,0.728,0.324,0.578,0.546,��쓌,14.1,��
2023/04/11,16:10,0.570,0.825,0.498,1.027,0.728,0.322,0.578,0.545,��쓌,15.0,��
2023/04/11,16:20,0.569,0.826,0.498,1.027,0.730,0.323,0.578,0.545,��쓌,14.7,��
2023/04/11,16:30,0.569,0.825,0.496,1.026,0.728,0.324,0.578,0.546,��쓌,12.7,��
2023/04/11,16:40,0.571,0.826,0.496,1.026,0.728,0.323,0.577,0.545,��쓌,15.2,��
2023/04/11,16:50,0.571,0.825,0.496,1.028,0.726,0.325,0.578,0.546,��쓌,14.4,��
2023/04/11,17:00,0.570,0.822,0.497,1.029,0.728,0.325,0.577,0.544,��쓌,14.7,��
2023/04/11,17:10,0.569,0.823,0.496,1.030,0.727,0.322,0.577,0.544,��,12.2,��
2023/04/11,17:20,0.572,0.822,0.496,1.031,0.730,0.324,0.578,0.544,��,12.2,��
2023/04/11,17:30,0.569,0.826,0.495,1.029,0.729,0.324,0.577,0.545,��,11.9,��
2023/04/11,17:40,0.569,0.825,0.496,1.029,0.728,0.324,0.578,0.545,��,11.9,��
2023/04/11,17:50,0.569,0.824,0.497,1.030,0.728,0.324,0.577,0.545,��,11.3,��
2023/04/11,18:00,0.569,0.825,0.494,1.031,0.728,0.325,0.577,0.548,��,9.0,��
2023/04/11,18:10,0.571,0.825,0.497,1.032,0.727,0.324,0.577,0.548,��,8.7,��
2023/04/11,18:20,0.570,0.824,0.496,1.029,0.727,0.324,0.577,0.548,��,9.8,��
2023/04/11,18:30,0.570,0.823,0.496,1.030,0.728,0.324,0.579,0.547,��,9.3,��
2023/04/11,18:40,0.572,0.827,0.497,1.030,0.729,0.323,0.580,0.547,��,8.9,��
2023/04/11,18:50,0.572,0.826,0.498,1.031,0.730,0.324,0.580,0.548,��쓌,8.8,��
2023/04/11,19:00,0.571,0.828,0.499,1.029,0.729,0.323,0.579,0.548,��,9.0,��
2023/04/11,19:10,0.571,0.828,0.499,1.029,0.730,0.326,0.578,0.547,��쓌,9.0,��
2023/04/11,19:20,0.572,0.829,0.497,1.032,0.729,0.325,0.580,0.549,��,6.9,��
2023/04/11,19:30,0.571,0.828,0.499,1.030,0.728,0.325,0.579,0.547,��쓌,6.4,��
2023/04/11,19:40,0.571,0.824,0.498,1.030,0.731,0.325,0.579,0.547,��,5.8,��
2023/04/11,19:50,0.572,0.827,0.498,1.029,0.730,0.326,0.579,0.546,��,3.3,��
2023/04/11,20:00,0.571,0.828,0.498,1.029,0.731,0.325,0.579,0.546,��,2.9,��
2023/04/11,20:10,0.572,0.829,0.498,1.032,0.730,0.324,0.579,0.549,��쐼,2.6,��
2023/04/11,20:20,0.572,0.828,0.500,1.030,0.729,0.324,0.579,0.548,��,4.4,��
2023/04/11,20:30,0.572,0.827,0.498,1.028,0.729,0.326,0.580,0.547,��쓌,6.2,��
2023/04/11,20:40,0.572,0.829,0.497,1.032,0.729,0.326,0.580,0.547,��,7.6,��
2023/04/11,20:50,0.572,0.826,0.498,1.031,0.730,0.326,0.579,0.546,��,9.0,��
2023/04/11,21:00,0.573,0.827,0.498,1.030,0.730,0.325,0.580,0.547,��,8.5,��
2023/04/11,21:10,0.570,0.826,0.500,1.031,0.731,0.325,0.578,0.547,��,10.0,��
2023/04/11,21:20,0.572,0.828,0.498,1.030,0.730,0.325,0.580,0.547,��,10.5,��
2023/04/11,21:30,0.571,0.827,0.499,1.031,0.731,0.323,0.581,0.549,��,10.2,��
2023/04/11,21:40,0.572,0.826,0.498,1.028,0.733,0.325,0.580,0.547,��,10.6,��
2023/04/11,21:50,0.572,0.827,0.500,1.031,0.732,0.323,0.580,0.547,��,8.9,��
2023/04/11,22:00,0.572,0.829,0.499,1.032,0.731,0.324,0.580,0.547,��,10.5,��
2023/04/11,22:10,0.573,0.828,0.498,1.032,0.732,0.325,0.581,0.548,��,10.7,��
2023/04/11,22:20,0.572,0.827,0.499,1.031,0.730,0.326,0.578,0.547,��,10.0,��
2023/04/11,22:30,0.573,0.828,0.498,1.031,0.732,0.324,0.579,0.549,��,8.6,��
2023/04/11,22:40,0.572,0.827,0.497,1.031,0.728,0.324,0.580,0.548,��,6.6,��
2023/04/11,22:50,0.571,0.827,0.498,1.030,0.731,0.327,0.580,0.549,��,6.7,��
2023/04/11,23:00,0.571,0.827,0.498,1.029,0.729,0.324,0.580,0.547,��,6.1,��
2023/04/11,23:10,0.572,0.829,0.498,1.033,0.731,0.327,0.580,0.547,��쓌,7.5,��
2023/04/11,23:20,0.571,0.828,0.500,1.031,0.730,0.326,0.579,0.546,��,8.0,��
2023/04/11,23:30,0.572,0.827,0.500,1.030,0.731,0.326,0.579,0.547,��쓌,8.2,��
2023/04/11,23:40,0.571,0.828,0.496,1.029,0.731,0.326,0.579,0.548,��,7.4,��
2023/04/11,23:50,0.571,0.826,0.499,1.028,0.731,0.324,0.582,0.547,��,7.0,��
